Regional Weather Roundup
Issued by NWS

Home | Current Version | Previous Version | Graphics & Text | Print | Product List | Glossary On
Versions: 1 2 3 4 5 6 7 8 9 10 11 12 13 14 15 16 17 18 19 20 21 22 23 24 25 26 27 28 29 30 31 32 33 34 35 36 37 38 39 40 41 42 43 44 45 46 47 48 49 50
000
ASUS43 KDTX 111801
RWRMI
MICHIGAN HOURLY REGIONAL WEATHER ROUNDUP
NATIONAL WEATHER SERVICE DETROIT/PONTIAC MI
100 PM EST THU FEB 11 2016

NOTE: "FAIR" INDICATES FEW OR NO CLOUDS BELOW 12,000 FEET WITH NO
SIGNIFICANT WEATHER AND/OR OBSTRUCTION TO VISIBILITY.

MIZ047>049-052>055-059>063-066>070-074>076-081>083-111900-
SOUTHEAST LOWER MICHIGAN

CITY           SKY/WX    TMP DP  RH WIND       PRES   REMARKS
ADRIAN         CLOUDY    19   2  47 N12       30.22F WCI   7
6HR MIN TEMP:  12; 6HR MAX TEMP:  20;

ALMA           CLOUDY    20   7  56 NW8       30.20F WCI  10
ANN ARBOR      CLOUDY    19   4  51 NW12      30.20F WCI   7
BAD AXE        PTSUNNY   12   3  67 NW15      30.18F WCI  -4
CARO           MOSUNNY   12   3  67 N8        30.20S WCI   1
DETROIT CITY   CLOUDY    18   2  49 NW9       30.21S WCI   7
6HR MIN TEMP:  10; 6HR MAX TEMP:  18;

DETROIT        FLURRIES  19   4  51 NW13      30.22F WCI   6
6HR MIN TEMP:  11; 6HR MAX TEMP:  19; 6HR PCP: TRACE;

FLINT          CLOUDY    17   4  56 W15       30.21S WCI   2
6HR MIN TEMP:   6; 6HR MAX TEMP:  18; 6HR PCP: TRACE;

GROSSE ILE     CLOUDY    19   5  53 NW14      30.21S WCI   6
HILLSDALE      CLOUDY    18   6  58 NW8       30.18F WCI   8
6HR MIN TEMP:  11; 6HR MAX TEMP:  18;

HOWELL         CLOUDY    17   6  61 W10       30.19S WCI   5
6HR MIN TEMP:   6; 6HR MAX TEMP:  17;


CITY           SKY/WX    TMP DP  RH WIND       PRES   REMARKS
JACKSON        CLOUDY    19   3  49 NW15G22   30.19F WCI   5
6HR MIN TEMP:   8; 6HR MAX TEMP:  20;

LAMBERTVILLE   CLOUDY    20   2  44 NW7       30.23S WCI  12
6HR MIN TEMP:  12; 6HR MAX TEMP:  22;

LANSING        PTSUNNY   19   4  51 NW9       30.21S WCI   8
6HR MIN TEMP:  11; 6HR MAX TEMP:  20;

LAPEER         PTSUNNY   14   3  61 NW13      30.19S WCI   0
6HR MIN TEMP:   8; 6HR MAX TEMP:  15;

MASON          CLOUDY    18   4  56 NW9       30.20S WCI   6
MONROE         PTSUNNY   20   5  52 NW9       30.21F WCI   9
6HR MIN TEMP:  10; 6HR MAX TEMP:  21;

MT. CLEMENS    MOSUNNY   16   2  55 NW15      30.18S WCI   1
6HR MIN TEMP:  10; 6HR MAX TEMP:  16;

PONTIAC        PTSUNNY   15   3  59 NW13      30.17S WCI   1
6HR MIN TEMP:   6; 6HR MAX TEMP:  17; 6HR PCP: TRACE;

PORT HOPE        N/A     12   3  67 NW16G24   30.17S WCI  -5
6HR MIN TEMP:  11; 6HR MAX TEMP:  12;

PORT HURON     PTSUNNY   14   3  62 NW15G22   30.20R WCI  -1
TRI CITIES     MOSUNNY   17   2  51 NW9       30.21S WCI   6
6HR MIN TEMP:  13; 6HR MAX TEMP:  18; 6HR PCP: TRACE;

MIDLAND        FAIR      18   2  51 NW8       30.19F WCI   7
6HR MIN TEMP:  10; 6HR MAX TEMP:  18;

TROY           CLOUDY    19   4  53 W12G21    30.22S WCI   6
SAGINAW HB     CLOUDY    19   9  63 W12G17    30.21S WCI   7
$$
MIZ043>046-050>051-056>058-064>065-071>073-077>080-111900-
SOUTHWEST LOWER MICHIGAN

CITY           SKY/WX    TMP DP  RH WIND       PRES   REMARKS
BATTLE CREEK   CLOUDY    18   5  57 NW7       30.22S WCI   9
6HR MIN TEMP:  10; 6HR MAX TEMP:  19;

BENTON HARBOR  CLOUDY    20   9  62 VRB7      30.27S WCI  11
6HR MIN TEMP:  18; 6HR MAX TEMP:  22; 6HR PCP: TRACE;

BIG RAPIDS     CLOUDY    19   3  49 NW9       30.17S WCI   9
6HR MIN TEMP:  12; 6HR MAX TEMP:  19;

COLDWATER      CLOUDY    19   8  63 W7        30.22F WCI  10
6HR MIN TEMP:  13; 6HR MAX TEMP:  19;

FREMONT        CLOUDY    21   3  47 N9        30.22R WCI  10
HOLLAND        CLOUDY    22   6  50 NW8       30.24F WCI  12
6HR MIN TEMP:  14; 6HR MAX TEMP:  22; 6HR PCP:  0.01;

GRAND RAPIDS   PTSUNNY   21   4  47 NW12      30.22S WCI   9
6HR MIN TEMP:  15; 6HR MAX TEMP:  21;

IONIA          CLOUDY    20   5  52 W12       30.20S WCI   8
6HR MIN TEMP:  12; 6HR MAX TEMP:  20;

KALAMAZOO      PTSUNNY   19   5  54 NW7       30.23F WCI  10
6HR MIN TEMP:  13; 6HR MAX TEMP:  20; 6HR PCP: TRACE;

LUDINGTON      LGT SNOW  18   9  67 NW7       30.24S WCI   9
6HR MIN TEMP:  16; 6HR MAX TEMP:  18;

MARSHALL       CLOUDY    20   4  49 NW7       30.21S WCI  11
6HR MIN TEMP:   8; 6HR MAX TEMP:  20;

MOUNT PLEASANT CLOUDY    20   5  53 NW5       30.18F WCI  13
6HR MIN TEMP:  11; 6HR MAX TEMP:  21;

MUSKEGON       CLOUDY    22   7  52 NW10      30.25S WCI  11
6HR MIN TEMP:  16; 6HR MAX TEMP:  22; 6HR PCP: TRACE;

SOUTH HAVEN    CLOUDY    20  12  69 NW6       30.25F WCI  13
$$
MIZ016>042-111900-
NORTHERN LOWER MICHIGAN

CITY           SKY/WX    TMP DP  RH WIND       PRES   REMARKS
ALPENA         CLOUDY    10   0  63 NW12G23   30.17F WCI  -5
6HR MIN TEMP:   5; 6HR MAX TEMP:  10; 6HR PCP:  0.01;

BEAVER ISLAND  PTSUNNY   16   8  71 SW10G17   30.16F WCI   4
6HR MIN TEMP:  10; 6HR MAX TEMP:  16;

BELLAIRE       CLOUDY    16   5  61 E3        30.19S
6HR MIN TEMP:  11; 6HR MAX TEMP:  16;

CADILLAC       CLOUDY    16   4  58 NW13G18   30.12F WCI   2
CHARLEVOIX     CLOUDY    15   8  72 NW3       30.20S
6HR MIN TEMP:  12; 6HR MAX TEMP:  16;

FRANKFORT      LGT SNOW  18   9  69 NW9       30.21F WCI   6
GRAYLING       PTSUNNY   13   2  62 NW8       30.14F WCI   2
6HR MIN TEMP: -10; 6HR MAX TEMP:  13;

HARBOR SPRINGS PTSUNNY   15   4  61 W9G17     30.16F WCI   3
HOUGHTON LAKE  CLOUDY    14   3  61 NW10G21   30.15S WCI   1
6HR MIN TEMP:   4; 6HR MAX TEMP:  14;

MANISTEE       CLOUDY    18   7  62 W10       30.22S WCI   6
OSCODA         SUNNY     12  -1  54 N9G16     30.18S WCI   0
6HR MIN TEMP:  -3; 6HR MAX TEMP:  12;

PELLSTON       MOSUNNY   13   1  59 W10       30.16F WCI   0
6HR MIN TEMP:  -1; 6HR MAX TEMP:  14;

ROGERS CITY    PTSUNNY   10   2  70 N7        30.16F HAZE    WCI   0
TRAVERSE CITY  FLURRIES  18   6  59 W12       30.18S WCI   5
6HR MIN TEMP:  15; 6HR MAX TEMP:  18; 6HR PCP: TRACE;

$$
MIZ007>008-015-111900-
EASTERN UPPER MICHIGAN

CITY           SKY/WX    TMP DP  RH WIND       PRES   REMARKS
KINROSS        SUNNY      7   1  78 SW5       30.12F WCI  -2
6HR MIN TEMP:  -6; 6HR MAX TEMP:   7;

MACKINAC ISLAN SUNNY     10   1  68 SW6       30.14F WCI   0
6HR MIN TEMP:   1; 6HR MAX TEMP:  11;

NEWBERRY       CLOUDY    14   5  67 SW15      30.10F WCI  -2
6HR MIN TEMP:   1; 6HR MAX TEMP:  14;

S. S. MARIE    SUNNY      5  -6  60 SW10      30.12F WCI -10
6HR MIN TEMP:  -9; 6HR MAX TEMP:   5;

$$
MIZ004>006-011>014-085-111900-
CENTRAL UPPER MICHIGAN

CITY           SKY/WX    TMP DP  RH WIND       PRES   REMARKS
MANISTIQUE     PTSUNNY   17   5  59 W13       30.15S WCI   3
6HR MIN TEMP:   4; 6HR MAX TEMP:  17;

ESCANABA       SUNNY     16   0  48 NW12G18   30.20F WCI   3
6HR MIN TEMP:   7; 6HR MAX TEMP:  16;

MENOMINEE      SUNNY     14   0  52 W6        30.23F WCI   5
6HR MIN TEMP:   1; 6HR MAX TEMP:  14;

SAWYER-GWINN   PTSUNNY   10   1  67 W14       30.14S WCI  -5
$$
MIZ001>003-009>011-084-111900-
WESTERN UPPER MICHIGAN

CITY           SKY/WX    TMP DP  RH WIND       PRES   REMARKS
IRON MOUNTAIN  MOSUNNY   14   0  53 NW12      30.16F WCI   0
6HR MIN TEMP:   4; 6HR MAX TEMP:  14; 6HR PCP: TRACE;

HOUGHTON       LGT SNOW  11   3  70 NW16      30.14F WCI  -6
6HR MIN TEMP:   7; 6HR MAX TEMP:  12; 6HR PCP: TRACE;

COPPER HARBOR    N/A     13   6  74 N18G29    30.15F WCI  -4
6HR MIN TEMP:  10; 6HR MAX TEMP:  13; 6HR PCP:  0.01;

IRONWOOD       MOSUNNY    9   0  66 SW12      30.18F WCI  -6
6HR MIN TEMP:   3; 6HR MAX TEMP:   9;

$$

ABBREVIATIONS USED IN REMARKS
   TC - TEMPERATURE IN CELSIUS
  WCI - WIND CHILL INDEX
   HX - HEAT INDEX
  VSB - VISIBILITY




USA.gov is the U.S. government's official web portal to all federal, state and local government web resources and services.